     2.10           OBSERVATION DATA    G (GPS)             RINEX VERSION / TYPE
teqc 2006Apr13 CORS-ADM Account 20060628 16:04:01UTC        PGM / RUN BY / DATE
Solaris 5.9|UltraSparc IIi|cc -xarch=v9 SC5.5|=+-|*Sparc    COMMENT
teqc 2006Apr13 CORS/NGS/NOAA 20060628 16:04:01UTC           COMMENT
BIT 2 OF LLI FLAGS DATA COLLECTED UNDER A/S CONDITION       COMMENT
cnmr                                                        MARKER NAME
50512M001                                                   MARKER NUMBER
Peter Paul Camacho Commonwealth of the Northern Mariana Isl OBSERVER / AGENCY
0220233361 TRIMBLE 4700 7.29                                REC # / TYPE / VERS
0220238086 TRM33429.20+GP UNAV                              ANT # / TYPE
 -5087756.9960  3465027.2461  1664652.3620                  APPROX POSITION XYZ
        0.0000        0.0000        0.0000                  ANTENNA: DELTA H/E/N
     1     1                                                WAVELENGTH FACT L1/2
     7    C1    L1    L2    P1    P2    D1    D2            # / TYPES OF OBSERV
    30.0000                                                 INTERVAL
SNR is mapped to RINEX snr flag value [0-9]                 COMMENT
L1 & L2: min(max(int(snr_dBHz/6), 0), 9)                    COMMENT
Forced Modulo Decimation to 30 seconds                      COMMENT
  2006     6    28    15     0    0.0000000     GPS         TIME OF FIRST OBS
                                                            END OF HEADER
 06  6 28 15  0  0.0000000  0  6G20G27G16G22G19G11
  24255630.5194   -3289052.55047  -2546432.65044                  24255625.7404
      3420.8354
  23371330.6414  -10501782.13047  -8166108.44845                  23371326.5384
      1959.7314
  22478203.8654  -14701891.30448 -14231852.88846                  22478197.7414
     -1490.9914
  24625489.6354   -2598635.10346  -2022038.72043                  24625484.2624
     -1269.1554
  22177648.4854  -13594459.47348 -11576534.07046                  22177642.5874
      -201.3824
  20807203.6304  -22050863.53548 -17170019.14147                  20807198.1044
      1167.1394
 06  6 28 15  0 30.0000000  0  6G20G27G16G22G19G11
  24236089.9824   -3391737.26447  -2626446.66544                  24236085.5794
      3424.6634
  23360183.0534  -10560363.42547  -8211756.19045                  23360178.6754
      1945.6064
  22486749.3204  -14656981.35348 -14196858.10846                  22486744.7334
     -1503.0474
  24632772.2884   -2560361.18246  -1992214.79343                  24632766.2054
     -1282.3934
  22178792.9994  -13588447.40948 -11571849.34846                  22178786.4454
      -199.4874
  20800580.3944  -22085666.78048 -17197138.54147                  20800575.4754
      1152.9884
 06  6 28 15  1  0.0000000  0  6G20G27G16G22G19G11
  24216528.9394   -3494528.74146  -2706543.89344                  24216524.3524
      3428.1644
  23349117.2784  -10618515.10247  -8257069.18045                  23349113.0244
      1931.2354
  22495366.0214  -14611702.38848 -14161575.78646                  22495360.5714
     -1515.4544
  24640131.3614   -2521684.90046  -1962077.40843                  24640125.7164
     -1295.8454
  22179927.1114  -13582487.72748 -11567205.43446                  22179920.9344
      -197.7154
  20794039.7924  -22120040.20048 -17223923.02247                  20794034.1874
      1138.5994
 06  6 28 15  1 30.0000000  0  6G20G27G16G22G19G11
  24196948.0544   -3597430.40546  -2786726.99244                  24196942.6974
      3431.5924
  23338131.6854  -10676241.78747  -8302050.98545                  23338128.6534
      1916.8364
  22504051.4724  -14566060.40848 -14126010.60646                  22504046.0974
     -1527.7004
  24647567.0794   -2482613.12846  -1931631.86843                  24647562.6504
     -1309.3214
  22181049.7634  -13576586.53248 -11562607.09346                  22181043.5414
      -195.9724
  20787579.1184  -22153990.19548 -17250377.56247                  20787574.2794
      1124.3214
 06  6 28 15  2  0.0000000  0  6G20G27G16G22G19G11
  24177348.0024   -3700431.50946  -2866987.58544                  24177342.9354
      3435.1614
  23327229.4534  -10733534.51747  -8346694.66345                  23327225.6244
      1902.6424
  22512806.9814  -14520047.53348 -14090156.39346                  22512802.2134
     -1539.7464
  24655078.7664   -2443137.91646  -1900872.04443                  24655075.2214
     -1322.5394
  22182163.1214  -13570735.82148 -11558048.09746                  22182157.0114
      -194.0534
  20781201.0084  -22187508.89848 -17276496.01747                  20781195.5114
      1110.2494
 06  6 28 15  2 30.0000000  0  6G20G27G16G22G19G11
  24157727.5744   -3803536.40247  -2947329.03244                  24157722.3534
      3438.6234
  23316408.5094  -10790399.45047  -8391004.96545                  23316404.5634
      1888.4524
  22521632.2304  -14473670.71748 -14054018.60346                  22521627.4864
     -1551.8604
  24662666.9094   -2403267.03946  -1869803.79643                  24662660.8584
     -1335.5664
  22183265.4724  -13564943.12248 -11553534.30046                  22183259.4414
      -192.0214
  20774903.0744  -22220603.43748 -17302283.96747                  20774897.5464
      1096.2164
 06  6 28 15  3  0.0000000  0  6G20G27G16G22G19G11
  24138088.3284   -3906740.00047  -3027747.42144                  24138083.5304
      3441.6514
  23305669.9374  -10846832.45047  -8434978.73645                  23305666.0174
      1873.8334
  22530527.1984  -14426927.43648 -14017595.25846                  22530522.5824
     -1564.3024
  24670329.1454   -2362998.30046  -1838425.55743                  24670323.6524
     -1349.0624
  22184357.4354  -13559205.68048 -11549063.54846                  22184351.4164
      -190.4354
  20768686.5554  -22253271.63648 -17327739.69647                  20768681.1274
      1081.7094
 06  6 28 15  3 30.0000000  0  6G20G27G16G22G19G11
  24118431.6844   -4010033.66246  -3108235.97644                  24118426.8094
      3444.6094
  23295014.6914  -10902826.79747  -8478610.67645                  23295009.8364
      1859.0674
  22539492.8244  -14379812.07548 -13980881.97846                  22539488.3144
     -1576.8024
  24678068.2144   -2322326.24246  -1806732.98543                  24678064.0244
     -1362.5104
  22185439.4344  -13553517.84248 -11544631.45446                  22185433.5624
      -188.8674
  20762551.9674  -22285507.92948 -17352858.87947                  20762547.1664
      1067.2174
 06  6 28 15  4  0.0000000  0  6G20G27G16G22G19G11
  24098757.4424   -4113419.45446  -3188796.26744                  24098753.5024
      3447.8914
  23284441.6194  -10958385.95147  -8521903.48945                  23284437.5794
      1844.8634
  22548528.3884  -14332329.54848 -13943882.59346                  22548523.5384
     -1588.7454
  24685884.4394   -2281256.17946  -1774730.34244                  24685879.3884
     -1375.5374
  22186511.3284  -13547884.38548 -11540241.73846                  22186505.0184
      -186.7194
  20756498.8854  -22317317.22848 -17377645.33147                  20756494.1164
      1053.3304
 06  6 28 15  4 30.0000000  0  6G20G27G16G22G19G11
  24079067.9144   -4216893.14047  -3269425.08244                  24079062.9604
      3450.4594
  23273952.1754  -11013506.83747  -8564854.82845                  23273948.8884
      1830.1034
  22557634.5694  -14284477.90248 -13906595.60146                  22557629.3654
     -1601.2114
  24693775.4974   -2239786.73847  -1742416.45444                  24693770.1844
     -1389.0044
  22187573.6654  -13542303.32248 -11535892.84846                  22187567.0984
      -185.1814
  20750527.7344  -22348697.90748 -17402097.81447                  20750522.7264
      1038.8334
 06  6 28 15  5  0.0000000  0  6G20G27G16G22G19G11
  24059361.0724   -4320457.49247  -3350124.56544                  24059355.2154
      3453.3644
  23263545.7594  -11068194.46047  -8607468.55645                  23263542.2644
      1815.5084
  22566809.2034  -14236262.86448 -13869025.43046                  22566804.5534
     -1613.4914
  24701742.3454   -2197924.24347  -1709796.30944                  24701735.6504
     -1402.2024
  22188624.8764  -13536780.99048 -11531589.73546                  22188618.1644
      -183.3944
  20744636.2284  -22379656.48648 -17426221.37247                  20744631.3264
      1024.6634
 06  6 28 15  5 30.0000000  0  6G20G27G16G22G19G11
  24039636.4044   -4424107.87547  -3430891.10944                  24039630.7004
      3456.3484
  23253222.1224  -11122445.78947  -8649742.29745                  23253218.8494
      1801.0304
  22576053.9224  -14187682.79648 -13831170.82446                  22576048.9974
     -1625.4934
  24709783.1474   -2155667.33547  -1676868.83844                  24709777.1954
     -1415.2444
  22189664.7424  -13531315.21448 -11527330.71346                  22189658.3334
      -181.3044
  20738825.4604  -22410190.92048 -17450014.42647                  20738820.5504
      1010.7184
 06  6 28 15  6  0.0000000  0  6G20G27G16G22G19G11
  24019896.3824   -4527837.31846  -3511719.21343                  24019892.0394
      3458.9604
  23242982.3704  -11176255.38547  -8691671.83245                  23242979.4914
      1786.2454
  22585368.7654  -14138733.81848 -13793028.77046                  22585363.7084
     -1637.8224
  24717899.9144   -2113012.69847  -1643631.44244                  24717894.2624
     -1428.5114
  22190694.8864  -13525902.09548 -11523112.69646                  22190688.2874
      -179.6194
  20733096.3994  -22440297.76648 -17473474.29347                  20733091.1734
       996.4214
 06  6 28 15  6 30.0000000  0  6G20G27G16G22G19G11
  24000143.6834   -4631640.87046  -3592605.07844                  24000139.2334
      3461.4844
  23232827.4694  -11229619.83747  -8733254.51445                  23232824.1574
      1771.4994
  22594753.8614  -14089413.41547 -13754597.28246                  22594748.8944
     -1650.0934
  24726092.6914   -2069957.81746  -1610082.18043                  24726087.2634
     -1441.7434
  22191715.4264  -13520538.88248 -11518933.56846                  22191709.2534
      -177.8424
  20727449.1004  -22469974.36748 -17496598.91247                  20727444.5044
       982.1444
 06  6 28 15  7  0.0000000  0  7G20G 8G27G16G22G19G11
  23980376.5674   -4735526.04847  -3673554.56244                  23980371.3414
      3464.0624
  24541801.6454     -43352.10146    -23399.17154                  24541799.1204
      2887.5444
  23222755.5574  -11282548.65947  -8774497.74045                  23222751.3934
      1756.8464
  22604208.0974  -14039732.32047 -13715884.74146                  22604203.1924
     -1662.1974
  24734360.7344   -2026513.96047  -1576229.76744                  24734354.9724
     -1454.7704
  22192724.4734  -13515236.15148 -11514801.55646                  22192718.3024
      -175.9384
  20721881.7394  -22499231.98048 -17519397.04747                  20721876.8814
       968.0964
 06  6 28 15  7 30.0000000  0  7G20G 8G27G16G22G19G11
  23960592.3754   -4839485.98747  -3754562.27544                  23960587.7654
      3466.7284
  24525353.9834    -129786.98646    -90751.00843                  24525351.0494
      2874.8924
  23212767.1824  -11335037.11047  -8815397.82645                  23212763.3954
      1742.3784
  22613730.7894  -13989687.17947 -13676888.52246                  22613726.8854
     -1674.0534
  24742701.9794   -1982678.14247  -1542071.90843                  24742695.6824
     -1467.6124
  22193722.5444  -13509990.20248 -11510713.80346                  22193716.0704
      -173.7994
  20716394.5404  -22528067.05648 -17541865.93047                  20716389.9264
       954.2634
 06  6 28 15  8  0.0000000  0  7G20G 8G27G16G22G19G11
  23940795.2284   -4943521.30647  -3835628.75744                  23940789.9054
      3469.0094
  24508978.4504    -215839.37146   -157804.78743                  24508975.7934
      2861.9344
  23202862.3094  -11387087.27647  -8855956.37345                  23202858.8124
      1727.5834
  22623323.9414  -13939280.92547 -13637610.91646                  22623318.3954
     -1686.3094
  24751117.1604   -1938454.03746  -1507611.58443                  24751111.9584
     -1480.6934
  22194709.7084  -13504804.19748 -11506672.75746                  22194703.1954
      -171.9534
  20710987.1494  -22556483.13348 -17564008.33147                  20710982.3134
       940.1764
 06  6 28 15  8 30.0000000  0  7G20G 8G27G16G22G19G11
  23920982.9334   -5047627.31846  -3916750.30444                  23920979.5924
      3471.5484
  24492677.4014    -301505.19646   -224557.35644                  24492673.4604
      2849.2584
  23193041.6234  -11438696.28847  -8896171.18745                  23193037.3294
      1713.1104
  22632983.8324  -13888511.92347 -13598050.65945                  22632979.4204
     -1698.2034
  24759606.8384   -1893840.50046  -1472847.76143                  24759601.3464
     -1493.4234
  22195685.4834  -13499676.09948 -11502676.83146                  22195678.6804
      -169.7714
  20705660.0304  -22584478.76248 -17585823.11347                  20705655.0444
       926.3534
 06  6 28 15  9  0.0000000  0  7G20G 8G27G16G22G19G11
  23901159.9184   -5151801.26847  -3997924.74744                  23901155.9774
      3473.6724
  24476450.1814    -386781.93846   -291006.75844                  24476446.5194
      2836.0114
  23183305.0994  -11489863.34147  -8936041.62245                  23183301.5764
      1698.2234
  22642714.5394  -13837380.58947 -13558208.06145                  22642709.3634
     -1710.4154
  24768171.2854   -1848838.09847  -1437780.99043                  24768165.3714
     -1506.5924
  22196650.0554  -13494605.61648 -11498725.80546                  22196643.5514
      -168.0184
  20700412.1374  -22612054.16748 -17607310.43247                  20700406.8304
       912.2124
 06  6 28 15  9 30.0000000  0  7G20G 8G27G16G22G19G11
  23881324.8434   -5256041.85047  -4079151.13844                  23881320.2514
      3475.8594
  24460295.9384    -471668.70246   -357152.23244                  24460292.8764
      2823.1354
  23173652.1184  -11540588.60547  -8975567.79545                  23173648.3764
      1683.5064
  22652512.6604  -13785888.48247 -13518084.34246                  22652507.7984
     -1722.3544
  24776807.9434   -1803448.82747  -1402412.71844                  24776802.0514
     -1519.3514
  22197603.9294  -13489594.41648 -11494820.98146                  22197597.3384
      -165.9474
  20695244.4894  -22639211.21848 -17628471.76047                  20695239.8354
       898.3304
 06  6 28 15 10  0.0000000  0  7G20G 8G27G16G22G19G11
  23861475.8374   -5360350.72247  -4160430.80544                  23861470.9114
      3478.3254
  24444215.9214    -556167.69446   -422995.57244                  24444213.1794
      2810.3764
  23164082.8574  -11590876.02047  -9014752.77345                  23164079.2294
      1669.1314
  22662379.1504  -13734040.55547 -13477683.36346                  22662374.4754
     -1734.0044
  24785517.5594   -1757678.00747  -1366747.08943                  24785512.1284
     -1531.8214
  22198545.3884  -13484646.80748 -11490965.69046                  22198538.6494
      -163.6774
  20690155.4824  -22665954.75148 -17649310.87547                  20690150.2344
       884.7464
 06  6 28 15 10 30.0000000  0  7G20G 8G27G16G22G19G11
  23841613.6044   -5464724.84447  -4241761.28744                  23841609.1894
      3480.1224
  24428211.1924    -640276.43346   -488534.82344                  24428207.5034
      2797.1194
  23154596.6154  -11640724.48647  -9053595.73045                  23154592.9494
      1654.2924
  22672313.3054  -13681836.68747 -13437005.03546                  22672308.7184
     -1746.0694
  24794300.6494   -1711526.10846  -1330784.52344                  24794294.3314
     -1544.8144
  22199474.6894  -13479762.67648 -11487159.86947                  22199468.3824
      -161.7774
  20685144.6174  -22692285.89548 -17669828.64047                  20685139.5414
       870.8454
 06  6 28 15 11  0.0000000  0  7G20G 8G27G16G22G19G11
  23821740.2804   -5569154.64947  -4323135.14044                  23821736.0624
      3481.9334
  24412281.8774    -723985.46546   -553762.63244                  24412277.2304
      2783.7254
  23145195.7744  -11690126.53847  -9092090.82445                  23145192.2744
      1639.2924
  22682316.0604  -13629270.42747 -13396044.31346                  22682311.0794
     -1758.2724
  24803156.4554   -1664987.17647  -1294520.43844                  24803151.0534
     -1557.7884
  22200393.2874  -13474935.27648 -11483398.26146                  22200387.3374
      -160.0494
  20680213.8864  -22718197.74448 -17690019.68347                  20680208.5744
       856.6704
 06  6 28 15 11 30.0000000  0  7G20G 8G27G16G22G19G11
  23801858.2254   -5673639.43547  -4404551.87244                  23801853.8704
      3483.5894
  24396428.3564    -807295.01646   -618679.11344                  24396425.0474
      2770.2784
  23135879.7954  -11739083.34047  -9130238.96945                  23135876.3434
      1624.3314
  22692388.2304  -13576344.42648 -13354803.28445                  22692382.7764
     -1770.3224
  24812085.2594   -1618063.92646  -1257956.83743                  24812079.2014
     -1570.6254
  22201300.6764  -13470166.32148 -11479682.18846                  22201294.7374
      -158.1254
  20675362.1334  -22743692.79748 -17709885.96647                  20675357.3534
       842.8474
 06  6 28 15 12  0.0000000  0  6G20G 8G27G16G19G11
  23781965.5204   -5778178.16247  -4486010.58044                  23781960.4774
      3485.1564
  24380650.8534    -890204.84046   -683284.11943                  24380648.1124
      2756.6504
  23126647.9724  -11787595.97247  -9168041.01345                  23126644.2024
      1609.4584
  22702527.7124  -13523060.94547 -13313283.67645                  22702522.1954
     -1782.2954
  22202196.9164  -13465457.93248 -11476013.32646                  22202190.5374
      -156.1964
  20670589.4394  -22768773.84448 -17729429.63947                  20670584.3494
       828.9364
 06  6 28 15 12 30.0000000  0  6G20G 8G27G16G19G11
  23762065.0774   -5882757.41947  -4567500.92144                  23762059.6514
      3486.6164
  24364952.8344    -972701.84246   -747567.48744                  24364948.8774
      2742.9444
  23117503.0814  -11835653.30247  -9205488.29845                  23117499.7414
      1594.3214
  22712737.2634  -13469409.69048 -13271477.50746                  22712732.3244
     -1794.4924
  22203083.6124  -13460799.53048 -11472383.39946                  22203077.4734
      -154.4974
  20665897.4444  -22793430.72548 -17748642.78047                  20665892.7994
       814.7854
 06  6 28 15 13  0.0000000  0  6G20G 8G27G16G19G11
  23742156.5174   -5987376.78647  -4649022.49644                  23742151.6124
      3487.8424
  24349332.2534   -1054785.97746   -811529.12144                  24349328.1774
      2729.0094
  23108444.3644  -11883256.08047  -9242581.34345                  23108440.8394
      1579.1214
  22723016.3874  -13415392.88248 -13229386.49545                  22723010.9534
     -1806.7634
  22203960.0404  -13456192.83148 -11468793.74546                  22203953.6104
      -152.8084
  20661285.4384  -22817666.19748 -17767527.55947                  20661280.8684
       800.7284
 06  6 28 15 13 30.0000000  0  6G20G 8G27G16G19G11
  23722238.9604   -6092039.84047  -4730578.11644                  23722234.6594
      3489.7124
  24333789.8314   -1136461.92346   -875172.66044                  24333786.2004
      2715.9474
  23099471.3664  -11930410.79547  -9279325.29445                  23099467.6424
      1564.6584
  22733362.8464  -13361017.90748 -13187016.37945                  22733357.6314
     -1818.2034
  22204825.8134  -13451644.32948 -11465249.45946                  22204819.4204
      -150.3614
  20656752.3454  -22841487.89248 -17786089.91247                  20656747.1264
       787.3934
 06  6 28 15 14  0.0000000  0  6G20G 8G27G16G19G11
  23702313.7714   -6196746.16347  -4812167.42845                  23702309.4594
      3491.1524
  24318325.6334   -1217729.98546   -938498.32644                  24318321.3924
      2702.3584
  23090583.0404  -11977118.94547  -9315721.24445                  23090578.9204
      1549.8194
  22743778.0654  -13306287.40048 -13144369.22845                  22743772.7634
     -1830.0154
  22205679.5644  -13447156.52948 -11461752.45946                  22205673.6484
      -148.3354
  20652297.6234  -22864898.17848 -17804331.69347                  20652292.8714
       773.7694
 06  6 28 15 14 30.0000000  0  6G20G 8G27G16G19G11
  23682382.4184   -6301489.07747  -4893785.27745                  23682377.6554
      3491.9824
  24302939.0194   -1298583.90946  -1001501.39343                  24302935.3854
      2688.1984
  23081781.1264  -12023376.28247  -9351765.92545                  23081776.7904
      1534.4144
  22754260.7814  -13251198.60248 -13101442.88345                  22754256.6514
     -1842.2904
  22206522.5424  -13442725.76848 -11458299.91847                  22206516.2834
      -146.7974
  20647921.4634  -22887894.23348 -17822250.69747                  20647916.2314
       759.6484
 06  6 28 15 15  0.0000000  0  6G20G 8G27G16G19G11
  23662444.0374   -6406266.29847  -4975429.86645                  23662438.6744
      3493.3644
  24287632.2074   -1379022.21546  -1064180.55943                  24287628.8984
      2674.5954
  23073064.0154  -12069182.55847  -9387459.12945                  23073059.6354
      1519.6294
  22764812.6444  -13195751.67348 -13058237.49745                  22764807.1334
     -1853.8874
  22207354.9004  -13438352.13748 -11454891.89447                  22207348.6034
      -144.6294
  20643624.2144  -22910477.30448 -17839847.89347                  20643619.6314
       746.1914
 06  6 28 15 15 30.0000000  0  6G20G 8G27G16G19G11
  23642499.6824   -6511074.01547  -5057098.20544                  23642495.2094
      3494.2874
  24272405.3964   -1459041.52046  -1126533.24843                  24272400.5394
      2660.4834
  23064432.9674  -12114535.99047  -9422799.45045                  23064429.6304
      1504.3414
  22775431.6184  -13139946.22148 -13014752.71945                  22775426.5424
     -1866.0014
  22208176.2314  -13434034.32348 -11451527.35047                  22208169.9614
      -142.8664
  20639405.4984  -22932646.87748 -17857122.88647                  20639400.8214
       732.2514
 06  6 28 15 16  0.0000000  0  6G20G 8G27G16G19G11
  23622547.3494   -6615917.67047  -5138794.51444                  23622543.0904
      3495.3224
  24257257.2284   -1538648.33046  -1188564.52343                  24257252.3274
      2646.5774
  23055887.6064  -12159444.52747  -9457793.12445                  23055884.2814
      1489.4734
  22786117.4674  -13083791.46948 -12970995.77045                  22786112.5174
     -1877.7004
  22208985.6904  -13429780.76848 -11448212.88547                  22208979.8494
      -140.8064
  20635263.6684  -22954412.14948 -17874082.82347                  20635258.9994
       718.7264
 06  6 28 15 16 30.0000000  0  6G20G 8G27G16G19G11
  23602591.5874   -6720794.33047  -5220516.61144                  23602586.6204
      3496.5924
  24242186.6314   -1617840.50146  -1250272.64943                  24242183.4344
      2633.0664
  23047426.6614  -12203907.61347  -9492439.67945                  23047422.6134
      1474.8244
  22796869.4474  -13027287.95948 -12926967.05245                  22796864.3974
     -1889.1454
  22209783.0284  -13425591.50448 -11444948.51847                  22209777.2964
      -138.3544
  20631198.5054  -22975773.95948 -17890728.39847                  20631193.4804
       705.5714
 06  6 28 15 17  0.0000000  0  6G20G 8G27G16G19G11
  23582629.1064   -6825698.13947  -5302259.83744                  23582623.5494
      3497.1584
  24227196.7154   -1696613.16646  -1311653.89743                  24227193.0324
      2618.6434
  23039051.2134  -12247921.70247  -9526736.37545                  23039047.4684
      1459.5904
  22807688.9814  -12970433.30848 -12882664.73445                  22807683.3284
     -1901.0944
  22210568.9684  -13421463.04248 -11441731.53447                  22210563.0384
      -136.6464
  20627210.8694  -22996730.00348 -17907057.78647                  20627206.0424
       691.7634
 06  6 28 15 17 30.0000000  0  6G20G 8G27G16G19G11
  23562661.4724   -6930629.31847  -5384024.41145                  23562656.8414
      3498.0664
  24212286.8734   -1774967.09347  -1372708.87343                  24212283.0974
      2604.7414
  23030760.3584  -12291489.36047  -9560685.19845                  23030756.7384
      1444.7564
  22818573.8974  -12913230.85248 -12838091.38645                  22818569.4714
     -1912.6124
  22211342.1494  -13417398.28748 -11438564.18546                  22211336.1414
      -134.5074
  20623299.6204  -23017283.95048 -17923073.83947                  20623295.0954
       678.4234
 06  6 28 15 18  0.0000000  0  6G20G 8G27G16G19G11
  23542690.1814   -7035577.67547  -5465802.32845                  23542685.1924
      3498.4674
  24197456.9394   -1852892.79046  -1433430.25343                  24197454.5344
      2590.2744
  23022556.0974  -12334602.50347  -9594279.83545                  23022551.4434
      1429.5224
  22829527.0294  -12855673.97648 -12793241.87745                  22829522.1844
     -1924.4144
  22212105.3674  -13413389.44148 -11435440.40646                  22212098.8094
      -132.7494
  20619465.7384  -23037428.97848 -17938771.26947                  20619460.9924
       664.5654
 06  6 28 15 18 30.0000000  0  6G20G 8G27G16G19G11
  23522715.5214   -7140541.47747  -5547592.27845                  23522711.1324
      3499.3164
  24182711.0374   -1930390.04946  -1493817.64543                  24182706.8494
      2576.2504
  23014438.6374  -12377262.01147  -9627520.99245                  23014433.4634
      1414.6294
  22840547.1204  -12797764.55848 -12748117.63645                  22840541.8224
     -1936.0164
  22212856.9704  -13409438.04648 -11432361.38546                  22212850.4134
      -130.5324
  20615709.9534  -23057167.63748 -17954152.03947                  20615705.5434
       651.4214
 06  6 28 15 19  0.0000000  0  6G20G 8G27G16G19G11
  23502738.4404   -7245523.69647  -5629396.60445                  23502733.9604
      3499.5514
  24168044.0434   -2007461.75647  -1553873.52443                  24168040.1924
      2561.8414
  23006405.2914  -12419472.92347  -9660412.61145                  23006402.1364
      1399.4534
  22851632.7414  -12739508.24547 -12702723.10545                  22851627.4544
     -1947.7984
  22213597.2504  -13405549.33148 -11429331.20146                  22213591.0394
      -128.6674
  20612029.9994  -23076505.91748 -17969220.83247                  20612024.8004
       637.8274
 06  6 28 15 19 30.0000000  0  6G20G 8G27G16G19G11
  23482759.3434   -7350514.05747  -5711207.26745                  23482754.4034
      3499.8104
  24153460.3884   -2084099.44146  -1613591.12943                  24153455.8194
      2547.3544
  22998459.8984  -12461228.12747  -9692949.13745                  22998455.6704
      1384.3314
  22862785.5584  -12680899.49947 -12657053.97345                  22862780.3104
     -1959.4784
  22214326.1374  -13401716.31148 -11426344.43146                  22214320.2764
      -126.8264
  20608427.5034  -23095438.12348 -17983973.19847                  20608422.7264
       624.3804
 06  6 28 15 20  0.0000000  0  6G20G 8G27G16G19G11
  23462779.5364   -7455513.39547  -5793024.90345                  23462773.6984
      3500.1424
  24138959.2174   -2160304.46146  -1672971.71344                  24138955.1864
      2532.9934
  22990599.9164  -12502530.50747  -9725132.78745                  22990596.4904
      1369.2724
  22874004.6104  -12621942.60748 -12611113.52445                  22873998.8444
     -1970.9424
  22215044.8184  -13397942.12648 -11423403.47946                  22215038.3714
      -124.7614
  20604901.0564  -23113968.28848 -17998412.28047                  20604896.0934
       611.0554
 06  6 28 15 20 30.0000000  0  6G20G 8G27G16G19G11
  23442797.8974   -7560515.21347  -5874844.51345                  23442792.9684
      3500.4784
  24124540.5644   -2236071.50146  -1732010.91043                  24124537.5754
      2518.6434
  22982827.3124  -12543376.21547  -9756960.61545                  22982824.0864
      1354.2244
  22885290.6064  -12562634.06248 -12564899.07245                  22885285.2764
     -1982.4174
  22215752.5434  -13394222.91548 -11420505.36646                  22215745.7974
      -122.6764
  20601451.6884  -23132094.05048 -18012536.25547                  20601446.9174
       597.8374
 06  6 28 15 21  0.0000000  0  6G20G 8G27G16G19G11
  23422815.4954   -7665521.19347  -5956667.33345                  23422811.4834
      3500.2304
  24110205.9014   -2311403.12247  -1790710.88643                  24110202.2074
      2503.6184
  22975141.7064  -12583769.29747  -9788435.72845                  22975137.7014
      1338.7554
  22896641.7024  -12502979.18848 -12518414.76145                  22896637.0474
     -1994.2924
  22216449.4534  -13390563.03448 -11417653.49546                  22216442.5724
      -121.0504
  20598078.6054  -23149820.45948 -18026349.04947                  20598073.6924
       584.1754
 06  6 28 15 21 30.0000000  0  6G20G 8G27G16G19G11
  23402833.5544   -7770527.97747  -6038490.79345                  23402828.4664
      3500.1514
  24095954.4254   -2386297.28347  -1849069.97643                  24095950.0964
      2489.1554
  22967540.5664  -12623709.21447  -9819557.72945                  22967537.0964
      1323.6964
  22908060.4644  -12442978.47548 -12471660.94745                  22908054.9184
     -2005.7814
  22217133.9564  -13386961.95548 -11414847.41047                  22217127.5834
      -119.0874
  20594781.0904  -23167148.15748 -18039851.14647                  20594776.3214
       570.9374
 06  6 28 15 22  0.0000000  0  6G20G 8G27G16G19G11
  23382851.1934   -7875536.57747  -6120315.66845                  23382846.2764
      3499.9714
  24081785.3014   -2460755.50046  -1907089.33943                  24081780.0604
      2474.3954
  22960025.9654  -12663199.69347  -9850329.53445                  22960022.4744
      1308.5114
  22919543.3234  -12382636.54248 -12424641.25745                  22919537.5564
     -2017.3054
  22217807.2374  -13383423.43048 -11412090.08646                  22217800.8474
      -117.1924
  20591558.8064  -23184082.10548 -18053046.43747                  20591553.6394
       557.6124
 06  6 28 15 22 30.0000000  0  6G20G 8G27G16G19G11
  23362869.4154   -7980539.94947  -6202136.47845                  23362863.9344
      3500.1174
  24067700.6184   -2534772.11947  -1964764.57944                  24067696.5094
      2459.9564
  22952596.8984  -12702236.17247  -9880747.55645                  22952593.8954
      1293.6574
  22931091.5614  -12321949.87847 -12377352.95545                  22931086.2294
     -2028.5304
  22218469.5594  -13379942.82448 -11409377.88046                  22218463.5114
      -114.9514
  20588412.0184  -23200618.97948 -18065932.30247                  20588406.6624
       544.6734
 06  6 28 15 23  0.0000000  0  6G20G 8G27G16G19G11
  23342889.2754   -8085537.44347  -6283952.71045                  23342883.9814
      3499.8484
  24053698.9354   -2608347.73046  -2022096.19944                  24053694.7884
      2445.3084
  22945255.6514  -12740820.62647  -9910813.35145                  22945251.6634
      1278.6474
  22942705.1014  -12260921.65647 -12329798.50845                  22942699.5254
     -2039.8684
  22219120.4724  -13376522.26248 -11406712.48746                  22219113.9194
      -113.0134
  20585339.8314  -23216762.04048 -18078511.31247                  20585335.1274
       531.6414
 06  6 28 15 23 30.0000000  0  6G20G 8G27G16G19G11
  23322909.9614   -8190525.25947  -6365761.38844                  23322905.9084
      3499.5214
  24039782.9894   -2681479.44947  -2079081.95044                  24039777.9254
      2430.3764
  22937998.9594  -12778952.19047  -9940526.24545                  22937995.2924
      1263.6384
  22954383.1214  -12199552.40947 -12281978.31345                  22954377.8194
     -2051.1774
  22219760.2504  -13373160.94948 -11404093.25447                  22219753.6424
      -110.9384
  20582342.9344  -23232511.46548 -18090783.59247                  20582337.9554
       518.5894
 06  6 28 15 24  0.0000000  0  6G20G 8G27G16G19G11
  23302933.6374   -8295504.79347  -6447563.60345                  23302928.5844
      3499.2584
  24025950.2474   -2754169.64847  -2135723.65844                  24025946.5384
      2415.7374
  22930828.6454  -12816634.44447  -9969889.02845                  22930824.5094
      1248.6574
  22966125.3824  -12137846.31747 -12233895.63245                  22966120.1154
     -2062.3934
  22220387.7474  -13369862.58148 -11401523.09346                  22220381.2354
      -108.7944
  20579419.9194  -23247872.13748 -18102752.94147                  20579414.9754
       505.6644
 06  6 28 15 24 30.0000000  0  6G20G 8G27G16G19G11
  23282960.0464   -8400468.49947  -6529353.48945                  23282954.6944
      3498.3254
  24012202.7824   -2826412.19847  -2192016.51943                  24012198.3354
      2400.5964
  22923744.3534  -12853862.94847  -9998898.25245                  22923740.6154
      1233.2324
  22977932.5474  -12075799.78547 -12185547.70145                  22977926.8434
     -2073.9894
  22221004.2654  -13366622.10248 -11398998.04746                  22220998.0324
      -107.1344
  20576571.3994  -23262841.14148 -18114417.08947                  20576566.5704
       492.3444
 06  6 28 15 25  0.0000000  0  6G20G 8G27G16G19G11
  23262989.1034   -8505414.40747  -6611129.50945                  23262983.5804
      3497.8764
  23998540.8404   -2898206.67247  -2247960.25444                  23998536.2984
      2385.6884
  22916745.2954  -12890638.48747 -10027554.49545                  22916741.7824
      1218.3504
  22989803.4684  -12013414.60347 -12136935.87245                  22989798.0204
     -2085.1374
  22221609.5674  -13363440.44248 -11396518.83046                  22221603.2474
      -105.0784
  20573797.0914  -23277420.38748 -18125777.53247                  20573791.9714
       479.4534
 06  6 28 15 25 30.0000000  0  6G20G 8G27G16G19G11
  23243023.9484   -8610335.33347  -6692886.07145                  23243018.0164
      3496.8024
  23984965.9414   -2969546.80947  -2303549.92644                  23984961.4164
      2370.3424
  22909834.7854  -12926956.70347 -10055854.40345                  22909830.6994
      1202.8474
  23001739.9074  -11950687.42847 -12088057.56245                  23001735.4494
     -2096.6454
  22222204.9354  -13360313.06748 -11394081.90146                  22222198.5134
      -103.4034
  20571097.6064  -23291606.11148 -18136831.33547                  20571092.6944
       466.1674
 06  6 28 15 26  0.0000000  0  6G20G 8G27G16G19G11
  23223061.2674   -8715236.47847  -6774627.22245                  23223056.5584
      3496.2404
  23971475.0194   -3040438.82847  -2358790.46644                  23971471.4664
      2355.5034
  22903009.2374  -12962825.40647 -10083804.02945                  22903005.1314
      1187.9744
  23013739.5034  -11887627.66247 -12038920.09045                  23013734.8834
     -2107.6764
  22222788.7134  -13357247.76148 -11391693.36346                  22222782.1604
      -101.2264
  20568471.4004  -23305407.81448 -18147585.90647                  20568466.6264
       453.5164
 06  6 28 15 26 30.0000000  0  6G20G 8G27G16G19G11
  23203104.3614   -8820111.11347  -6856347.68345                  23203099.7514
      3495.4644
  23958070.8514   -3110877.65246  -2413677.79344                  23958066.4784
      2340.5574
  22896270.4054  -12998240.57747 -10111400.26045                  22896266.1584
      1172.9884
  23025803.3514  -11824232.17847 -11989521.00845                  23025798.6424
     -2118.7654
  22223360.8234  -13354240.25048 -11389349.85647                  22223354.2124
       -99.2194
  20565917.8964  -23318822.47448 -18158038.88147                  20565913.9894
       440.8114
 06  6 28 15 27  0.0000000  0  6G20G 8G27G16G19G11
  23183151.1514   -8924963.65647  -6938050.96245                  23183146.7294
      3494.6194
  23944752.3174   -3180868.36847  -2468216.00144                  23944747.7914
      2325.4934
  22889615.4834  -13033209.78647 -10138648.96745                  22889611.5364
      1158.2134
  23037929.5484  -11760509.16247 -11939866.72045                  23037925.0804
     -2129.5954
  22223920.5464  -13351297.52948 -11387056.81947                  22223914.8874
       -97.0954
  20563437.7604  -23331859.36348 -18168197.48747                  20563433.2404
       428.1844
 06  6 28 15 27 30.0000000  0  6G20G 8G27G16G19G11
  23163204.0854   -9029787.11247  -7019731.54845                  23163199.7844
      3493.5504
  23931519.7434   -3250405.76647  -2522400.95044                  23931515.1254
      2310.2204
  22883047.0454  -13067728.94547 -10165547.03145                  22883042.1264
      1143.0524
  23050118.7564  -11696455.56247 -11889954.84345                  23050113.5554
     -2140.7084
  22224468.7084  -13348415.93748 -11384811.43247                  22224463.0294
       -95.0934
  20561029.4624  -23344514.75148 -18178058.81747                  20561024.4744
       415.5084
 06  6 28 15 28  0.0000000  0  6G20G 8G27G16G19G11
  23143264.0074   -9134572.86947  -7101382.75845                  23143259.8064
      3492.0314
  23918374.8304   -3319482.77247  -2576227.18744                  23918370.5034
      2294.6394
  22876564.3514  -13101792.35547 -10192089.90245                  22876561.0514
      1127.6664
  23062371.6344  -11632066.85147 -11839781.79745                  23062366.4734
     -2152.0364
  22225006.9114  -13345589.11248 -11382608.72647                  22225001.0504
       -93.5744
  20558694.6604  -23356784.84848 -18187619.93047                  20558689.7454
       402.3444
 06  6 28 15 28 30.0000000  0  6G20G 8G27G16G19G11
  23123332.6654   -9239314.09047  -7182999.28245                  23123328.6854
      3490.8354
  23905318.0554   -3388094.02347  -2629690.46544                  23905314.2594
      2279.5704
  22870169.8794  -13135396.66147 -10218275.08045                  22870165.4494
      1112.6374
  23074688.2464  -11567340.26347 -11789345.52045                  23074683.6604
     -2163.0274
  22225535.0384  -13342812.76848 -11380445.38046                  22225529.0024
       -91.5194
  20556433.7704  -23368666.20448 -18196878.12547                  20556428.8124
       389.7514
 06  6 28 15 29  0.0000000  0  6G20G 8G27G16G19G11
  23103408.3094   -9344019.34647  -7264587.80545                  23103402.9834
      3489.5074
  23892348.6444   -3456249.39646  -2682798.53544                  23892345.1874
      2264.1704
  22863860.6484  -13168553.30647 -10244111.41745                  22863856.6244
      1097.7344
  23087067.6944  -11502287.81447 -11738655.29545                  23087062.8004
     -2173.9264
  22226051.7334  -13340097.72548 -11378329.78246                  22226045.3974
       -89.5174
  20554244.0554  -23380171.53848 -18205843.31947                  20554239.6354
       377.1884
 06  6 28 15 29 30.0000000  0  6G20G 8G27G16G19G11
  23083491.9964   -9448678.31647  -7346140.22445                  23083486.9214
      3487.6864
  23879467.8354   -3523939.61747  -2735544.13644                  23879464.2684
      2248.4574
  22857637.4444  -13201254.36947 -10269592.76545                  22857633.8104
      1082.3194
  23099509.9824  -11436903.29947 -11687706.31745                  23099505.2384
     -2185.1034
  22226558.0374  -13337436.57648 -11376256.15246                  22226551.9644
       -87.9744
  20552127.2914  -23391295.23148 -18214511.11447                  20552122.6554
       364.3464
 06  6 28 15 30  0.0000000  0  6G20G 8G27G16G19G11
  23063585.5194   -9553284.41447  -7427651.43845                  23063581.3094
      3486.2654
  23866675.3804   -3591159.96647  -2787923.56644                  23866672.2854
      2232.9544
  22851501.6384  -13233496.68147 -10294716.62445                  22851498.5194
      1067.3294
  23112016.0274  -11371184.53447 -11636496.90445                  23112011.2414
     -2195.9184
  22227055.0904  -13334825.41948 -11374221.47046                  22227047.9224
       -85.9624
  20550083.5394  -23402034.77648 -18222879.57747                  20550078.6744
       351.8314
 06  6 28 15 30 30.0000000  0  6G20G 8G27G16G19G11
  23043688.3204   -9657847.79647  -7509129.38345                  23043683.8464
      3484.8394
  23853971.4504   -3657921.78247  -2839945.78044                  23853967.9244
      2217.8174
  22845451.3704  -13265293.48547 -10319493.33445                  22845447.3054
      1052.5444
  23124582.0264  -11305144.87247 -11585037.42945                  23124577.5444
     -2206.4894
  22227540.3374  -13332276.91748 -11372235.60946                  22227533.4714
       -83.8134
  20548110.5444  -23412404.18448 -18230959.63047                  20548105.4604
       339.6094
 06  6 28 15 31  0.0000000  0  6G20G 8G27G16G19G11
  23023798.6724   -9762366.22047  -7590572.28145                  23023794.2464
      3483.1694
  23841355.0064   -3724224.56547  -2891610.25144                  23841350.5814
      2202.5244
  22839484.5974  -13296645.47647 -10343923.45645                  22839481.9094
      1037.7254
  23137209.7954  -11238786.46247 -11533329.57845                  23137205.5364
     -2217.1534
  22228012.7604  -13329791.52748 -11370298.92646                  22228007.5184
       -81.7634
  20546207.1894  -23422405.43848 -18238752.80847                  20546202.3654
       327.2954
 06  6 28 15 31 30.0000000  0  6G20G 8G27G16G19G11
  23003920.8924   -9866825.95547  -7671969.49245                  23003916.2864
      3481.0794
  23828826.9204   -3790056.14447  -2942907.54644                  23828823.5734
      2186.5674
  22833605.7674  -13327542.44047 -10367999.01145                  22833601.7904
      1022.4274
  23149900.2674  -11172100.21847 -11481366.28845                  23149894.9284
     -2228.1934
  22228475.8854  -13327358.10948 -11368402.74947                  22228470.8004
       -80.0984
  20544375.6954  -23432029.13548 -18246251.78347                  20544370.6494
       314.6534
 06  6 28 15 32  0.0000000  0  6G20G 8G27G16G19G11
  22984052.9894   -9971233.47547  -7753325.96945                  22984048.2604
      3479.3904
  23816387.7154   -3855424.40547  -2993843.81944                  23816384.1574
      2171.1674
  22827810.7904  -13357993.99647 -10391727.47745                  22827807.3094
      1007.6074
  23162651.1274  -11105096.28147 -11429155.43745                  23162645.7684
     -2238.7404
  22228927.4264  -13324985.60848 -11366554.06747                  22228922.4874
       -78.0474
  20542614.1204  -23441286.05948 -18253464.96447                  20542609.2604
       302.4414
 06  6 28 15 32 30.0000000  0  6G20G 8G27G16G19G11
  22964196.0104  -10075580.54947  -7834635.37245                  22964191.6514
      3477.0464
  23804037.5154   -3920322.75547  -3044413.94244                  23804034.4264
      2155.3134
  22822102.3764  -13387994.90147 -10415104.81245                  22822098.2644
       992.3444
  23175463.1044  -11037770.18947 -11376693.55145                  23175457.7404
     -2249.6834
  22229368.6264  -13322668.27648 -11364748.36846                  22229362.0364
       -76.4504
  20540923.3924  -23450172.03348 -18260389.09647                  20540918.7674
       289.8634
 06  6 28 15 33  0.0000000  0  6G20G 8G27G16G19G11
  22944352.4884  -10179861.00247  -7915892.84845                  22944347.2124
      3474.7124
  23791778.2644   -3984746.38947  -3094614.16744                  23791776.3594
      2139.4244
  22816479.8104  -13417541.80147 -10438128.36345                  22816474.8374
       977.2364
  23188335.9344  -10970119.96447 -11323979.10445                  23188330.6204
     -2260.4694
  22229799.6014  -13320402.74648 -11362983.04246                  22229792.7114
       -74.7274
  20539303.6314  -23458685.12048 -18267022.65247                  20539298.9004
       277.4514
 06  6 28 15 33 30.0000000  0  6G20G 8G27G16G19G11
  22924521.1634  -10284075.75347  -7997099.13445                  22924515.3704
      3472.8174
  23779608.6424   -4048697.67447  -3144446.30444                  23779605.3164
      2123.9894
  22810942.2614  -13446639.15847 -10460801.60646                  22810938.9034
       962.5544
  23201270.0384  -10902150.63047 -11271016.00145                  23201265.0694
     -2270.8014
  22230220.2904  -13318192.24748 -11361260.58146                  22230214.5884
       -72.6274
  20537753.1384  -23466830.53448 -18273369.72247                  20537748.5204
       265.5664
 06  6 28 15 34  0.0000000  0  6G20G 8G27G16G19G11
  22904703.1814  -10388220.47048  -8078250.84245                  22904697.4284
      3470.1564
  23767529.4214   -4112174.80247  -3193909.01344                  23767526.7364
      2107.8374
  22805491.4884  -13475286.16947 -10483123.93846                  22805487.2044
       947.2314
  23214264.9484  -10833862.30447 -11217804.32645                  23214259.9674
     -2281.6894
  22230630.6104  -13316035.31048 -11359579.86346                  22230624.6314
       -71.1284
  20536273.1874  -23474608.50948 -18279430.48547                  20536268.3314
       253.0864
 06  6 28 15 34 30.0000000  0  6G20G 8G27G16G19G11
  22884898.8934  -10492291.67547  -8159345.27245                  22884894.3644
      3467.6024
  23755540.8864   -4175175.51746  -3243000.47044                  23755538.2024
      2091.8754
  22800125.5644  -13503481.99547 -10505094.71245                  22800122.1154
       932.1194
  23227320.4614  -10765255.36847 -11164344.37845                  23227314.7814
     -2292.3734
  22231031.1764  -13313930.57048 -11357939.83246                  22231025.2654
       -69.3554
  20534863.1404  -23482019.49248 -18285205.26747                  20534858.2044
       240.7324
 06  6 28 15 35  0.0000000  0  6G20G 8G27G16G19G11
  22865108.0264  -10596291.14747  -8240383.79945                  22865103.3384
      3465.4004
  23743642.6284   -4237703.53647  -3291723.56544                  23743638.5074
      2076.3824
  22794845.1244  -13531232.06247 -10526718.14246                  22794841.6804
       917.4854
  23240435.0884  -10696336.01547 -11110641.00345                  23240430.2444
     -2302.5594
  22231421.0254  -13311882.65648 -11356344.07546                  22231414.5684
       -67.3294
  20533521.4014  -23489069.55248 -18290698.81447                  20533516.3644
       228.9454
 06  6 28 15 35 30.0000000  0  6G20G 8G27G16G19G11
  22845332.8024  -10700211.62948  -8321360.78445                  22845328.2464
      3462.7344
  23731834.6684   -4299753.55547  -3340074.19944                  23731830.9294
      2060.4204
  22789649.9074  -13558532.72547 -10547991.36346                  22789646.5154
       902.5494
  23253610.1944  -10627101.00947 -11056691.62345                  23253604.7234
     -2312.9694
  22231800.8214  -13309886.90748 -11354788.99446                  22231794.6684
       -65.6454
  20532248.9734  -23495756.06848 -18295909.07347                  20532243.9834
       216.9244
 06  6 28 15 36  0.0000000  0  6G20G 8G27G16G19G11
  22825574.8364  -10804043.53348  -8402268.76045                  22825569.3424
      3459.7224
  23720119.7254   -4361317.21847  -3388045.89444                  23720116.1494
      2044.1654
  22784541.0754  -13585377.87547 -10568909.65246                  22784537.5604
       887.4414
  23266846.4564  -10557545.34147 -11002492.41945                  23266841.0014
     -2323.6434
  22232172.0464  -13307936.13248 -11353268.94546                  22232166.1674
       -64.1504
  20531046.6284  -23502073.81648 -18300831.98547                  20531041.5194
       204.6004
 06  6 28 15 36 30.0000000  0  6G20G 8G27G16G19G11
  22805831.4894  -10907790.40147  -8483110.44945                  22805826.9844
      3456.9044
  23708496.2684   -4422399.96047  -3435642.81044                  23708491.8944
      2028.1304
  22779518.0324  -13611774.40647 -10589478.36946                  22779514.2954
       872.4954
  23280142.1424  -10487676.30547 -10948049.00745                  23280137.4654
     -2334.0874
  22232533.5004  -13306036.66448 -11351788.85446                  22232527.2774
       -62.3834
  20529913.3084  -23508030.68148 -18305473.68447                  20529908.5444
       192.5494
 06  6 28 15 37  0.0000000  0  6G20G 8G27G16G19G11
  22786105.7864  -11011451.21847  -8563885.10945                  22786101.0524
      3453.8674
  23696963.3214   -4483002.67747  -3482865.66344                  23696959.9904
      2012.0264
  22774580.4264  -13637724.40947 -10609699.14645                  22774576.1614
       857.5684
  23293497.0634  -10417497.30047 -10893364.08945                  23293491.1164
     -2344.4384
  22232885.1704  -13304189.38448 -11350349.44446                  22232879.5894
       -60.6404
  20528847.7724  -23513629.97448 -18309836.75147                  20528843.2474
       180.6404
 06  6 28 15 37 30.0000000  0  6G20G 8G27G16G19G11
  22766396.7714  -11115021.85948  -8644589.47945                  22766391.6854
      3450.9864
  23685523.5084   -4543123.02847  -3529712.69244                  23685519.7384
      1996.0744
  22769726.8804  -13663227.22147 -10629571.45446                  22769723.6154
       842.7494
  23306910.1904  -10347008.61747 -10838437.84145                  23306905.2274
     -2354.6734
  22233226.8094  -13302393.40448 -11348950.01046                  22233220.9604
       -58.9214
  20527850.0714  -23518871.98648 -18313921.43147                  20527845.0724
       168.9264
 06  6 28 15 38  0.0000000  0  6G20G 8G27G16G19G11
  22746705.6104  -11218502.90148  -8725224.04146                  22746700.7964
      3447.7734
  23674174.5304   -4602763.35247  -3576185.65944                  23674170.3364
      1980.0544
  22764958.7014  -13688286.73048 -10649098.34246                  22764955.3384
       827.9054
  23320381.6134  -10276214.78747 -10783273.84344                  23320376.4384
     -2364.8634
  22233558.7644  -13300651.29748 -11347592.54646                  22233552.5224
       -57.2364
  20526919.8724  -23523761.45448 -18317731.39847                  20526915.1684
       157.1094
 06  6 28 15 38 30.0000000  0  6G20G 8G27G16G19G11
  22727031.8974  -11321886.15148  -8805782.40645                  22727027.2784
      3444.4044
  23662916.8054   -4661918.03947  -3622280.17744                  23662914.1104
      1963.7354
  22760274.7404  -13712898.44647 -10668276.27746                  22760271.2214
       812.9104
  23333912.5394  -10205112.31047 -10727869.32844                  23333906.5414
     -2375.2104
  22233880.3084  -13298957.54148 -11346272.73446                  22233874.0574
       -55.7184
  20526057.0704  -23528295.09048 -18321264.09047                  20526052.4704
       145.1904
 06  6 28 15 39  0.0000000  0  6G20G 8G27G16G19G11
  22707375.5264  -11425176.31147  -8886268.20645                  22707371.9264
      3441.4164
  23651751.4304   -4720592.71547  -3668000.70744                  23651748.2444
      1947.9594
  22755675.1734  -13737070.64747 -10687111.74846                  22755671.4654
       798.4184
  23347499.8654  -10133709.83347 -10672231.02145                  23347493.7144
     -2385.0204
  22234192.3844  -13297319.35548 -11344996.26546                  22234186.6474
       -53.6874
  20525260.4394  -23532481.84048 -18324526.47547                  20525255.3454
       133.8384
 06  6 28 15 39 30.0000000  0  6G20G 8G27G16G19G11
  22687738.9754  -11528371.50047  -8966680.02545                  22687734.4564
      3437.9054
  23640677.4004   -4778788.21147  -3713347.83544                  23640673.8814
      1931.5774
  22751158.3934  -13760805.26747 -10705606.25445                  22751154.9574
       783.6524
  23361143.3054  -10062010.21847 -10616361.16545                  23361137.9444
     -2395.2344
  22234493.3594  -13295737.78548 -11343763.88646                  22234487.0894
       -52.0414
  20524529.2334  -23536324.53348 -18327520.77847                  20524524.3494
       122.1444
 06  6 28 15 40  0.0000000  0  6G20G 8G27G16G19G11
  22668121.8734  -11631460.32548  -9047008.96746                  22668117.3544
      3434.6444
  23629696.4114   -4836494.88647  -3758314.04244                  23629692.8844
      1915.4694
  22746727.0684  -13784094.30848 -10723753.54146                  22746722.4874
       769.0144
  23374845.1784   -9990006.46947 -10560254.34945                  23374840.3044
     -2405.0444
  22234785.0344  -13294203.25048 -11342568.18246                  22234779.6564
       -50.2444
  20523864.4534  -23539815.89548 -18330241.31247                  20523859.3154
       110.6744
 06  6 28 15 40 30.0000000  0  6G20G 8G27G16G19G11
  22648525.4074  -11734443.39048  -9127255.48246                  22648520.0294
      3430.8304
  23618807.6664   -4893715.50947  -3802901.52744                  23618803.6464
      1899.0924
  22742378.7734  -13806941.63248 -10741556.63545                  22742375.1224
       754.0974
  23388604.3574   -9917703.42947 -10503914.35545                  23388599.6834
     -2415.1864
  22235067.7084  -13292719.09648 -11341411.67546                  22235061.7154
       -48.7794
  20523265.8954  -23542961.11248 -18332692.12247                  20523261.2834
        98.9604
 06  6 28 15 41  0.0000000  0  6G20G 8G27G16G19G11
  22628948.4694  -11837319.62948  -9207418.76246                  22628943.7004
      3427.2264
  23608011.2344   -4950450.96647  -3847110.95744                  23608008.3994
      1882.9594
  22738115.1334  -13829350.21447 -10759017.86446                  22738110.6734
       739.5214
  23402419.4554   -9845104.19647 -10447343.52344                  23402414.4774
     -2425.0344
  22235340.3004  -13291286.92547 -11340295.66346                  22235334.1154
       -47.0514
  20522733.0464  -23545763.85848 -18334876.07947                  20522727.3954
        87.5244
 06  6 28 15 41 30.0000000  0  6G20G 8G27G16G19G11
  22609393.4434  -11940081.87847  -9287493.22246                  22609388.5554
      3423.4864
  23597308.3584   -5006695.90847  -3890938.18044                  23597304.5154
      1866.6994
  22733934.8344  -13851316.44647 -10776134.40545                  22733930.4524
       724.9464
  23416290.9214   -9772205.84247 -10390539.61744                  23416285.8554
     -2434.8344
  22235603.9534  -13289901.82748 -11339216.33446                  22235597.5224
       -45.3714
  20522264.9084  -23548220.98448 -18336790.72047                  20522259.8304
        76.2064
 06  6 28 15 42  0.0000000  0  6G20G 8G27G16G19G11
  22589860.1664  -12042729.54747  -9367478.39145                  22589855.3564
      3419.6934
  23586698.3644   -5062451.81847  -3934384.30544                  23586694.3314
      1850.3664
  22729838.3354  -13872843.39247 -10792908.63345                  22729834.2714
       710.2544
  23430219.3274   -9699012.19647 -10333505.61645                  23430214.3524
     -2444.7024
  22235857.9884  -13288565.45548 -11338174.99746                  22235852.5094
       -43.6774
  20521862.4364  -23550336.73048 -18338439.33547                  20521857.7194
        64.8394
 06  6 28 15 42 30.0000000  0  6G20G 8G27G16G19G11
  22570351.3654  -12145250.44548  -9447364.78846                  22570345.8404
      3415.2544
  23576183.2504   -5117708.84947  -3977441.74544                  23576179.5924
      1833.5554
  22725826.8594  -13893922.36147 -10809333.79745                  22725823.1264
       695.1614
  23444206.3854   -9625516.21047 -10276236.03445                  23444200.1284
     -2454.8934
  22236104.9564  -13287268.39048 -11337164.26246                  22236098.3384
       -42.6614
  20521526.1494  -23552103.48048 -18339816.02647                  20521521.4284
        53.1304
 06  6 28 15 43  0.0000000  0  6G20G 8G27G16G19G11
  22550864.4974  -12247650.89048  -9527157.32046                  22550859.7414
      3411.4064
  23565760.7774   -5172475.42047  -4020116.98544                  23565757.2194
      1817.3344
  22721899.8714  -13914563.59648 -10825417.86745                  22721895.0374
       680.7714
  23458246.4394   -9551728.52247 -10218739.10145                  23458241.8964
     -2464.4534
  22236342.4004  -13286019.25548 -11336190.89546                  22236336.8204
       -40.8454
  20521254.6534  -23553532.02848 -18340929.18947                  20521249.2354
        42.0464
 06  6 28 15 43 30.0000000  0  6G20G 8G27G16G19G11
  22531401.1044  -12349931.89448  -9606856.76246                  22531396.7304
      3407.4024
  23555432.3454   -5226754.65847  -4062412.44944                  23555429.4004
      1801.2404
  22718053.9514  -13934772.15647 -10841164.77145                  22718049.6804
       666.4504
  23472343.0894   -9477653.90047 -10161018.63045                  23472337.9794
     -2473.9014
  22236570.4724  -13284821.39748 -11335257.45546                  22236564.0104
       -39.0584
  20521046.3334  -23554627.93348 -18341783.12647                  20521040.8014
        31.0404
 06  6 28 15 44  0.0000000  0  6G20G 8G27G16G19G11
  22511961.9584  -12452084.51447  -9686456.18346                  22511957.8864
      3402.8714
  23545197.8794   -5280539.77247  -4104322.91444                  23545193.5614
      1784.6144
  22714291.4814  -13954542.53447 -10856570.24745                  22714287.7364
       651.7824
  23486493.8694   -9403288.15847 -10103071.30444                  23486489.1304
     -2483.6334
  22236789.9334  -13283668.63148 -11334359.20046                  22236784.9204
       -37.7254
  20520901.4574  -23555387.13048 -18342374.70847                  20520896.5104
        19.8004
 06  6 28 15 44 30.0000000  0  6G20G 8G27G16G19G11
  22492548.4794  -12554107.60648  -9765954.65746                  22492544.2304
      3398.5594
  23535056.5004   -5333832.00247  -4145849.31144                  23535053.2024
      1768.1064
  22710612.0084  -13973877.05947 -10871636.10445                  22710608.8294
       637.1974
  23500700.3104   -9328634.80547 -10044899.87645                  23500695.5444
     -2493.2374
  22237000.4424  -13282562.10548 -11333496.97846                  22236993.6894
       -36.1234
  20520820.6114  -23555812.66648 -18342706.28947                  20520815.2624
         8.5794
 06  6 28 15 45  0.0000000  0  6G20G 8G27G16G19G11
  22473159.0484  -12655995.42348  -9845347.74946                  22473154.1714
      3393.8724
  23525009.3484   -5386628.07047  -4186989.10244                  23525005.7974
      1751.5724
  22707016.1474  -13992774.04647 -10886361.01845                  22707012.4714
       622.5684
  23514961.4204   -9253692.68047  -9986503.40445                  23514956.0064
     -2502.9004
  22237202.7094  -13281498.46648 -11332668.15146                  22237197.0004
       -34.7854
  20520803.3914  -23555903.54848 -18342777.10547                  20520798.1024
        -2.6464
 06  6 28 15 45 30.0000000  0  6G20G 8G27G16G19G11
  22453797.0354  -12757745.83548  -9924633.77145                  22453791.3744
      3389.4434
  23515056.8244   -5438927.58647  -4227741.97144                  23515053.2764
      1735.1474
  22703503.1804  -14011235.35148 -10900746.44345                  22703499.1504
       608.2864
  23529276.6814   -9178464.04647  -9927883.72445                  23529271.4254
     -2512.2314
  22237396.7864  -13280477.98048 -11331872.99746                  22237391.6784
       -33.2134
  20520849.1024  -23555662.30648 -18342589.12247                  20520843.8544
       -13.4284
 06  6 28 15 46  0.0000000  0  6G20G 8G27G16G19G11
  22434460.1184  -12859358.94748 -10003812.80846                  22434455.6694
      3384.6734
  23505197.7504   -5490732.94547  -4268109.75444                  23505194.8754
      1718.4524
  22700072.7184  -14029265.04247 -10914795.53445                  22700068.7884
       593.6724
  23543646.6444   -9102953.87547  -9869044.62345                  23543640.9574
     -2521.8954
  22237582.7914  -13279503.04148 -11331113.30446                  22237575.8444
       -31.8854
  20520957.1804  -23555093.55948 -18342145.93247                  20520952.0164
       -24.5074
 06  6 28 15 46 30.0000000  0  6G20G 8G27G16G19G11
  22415152.3414  -12960822.52748 -10082875.28946                  22415147.5284
      3379.8734
  23495436.2824   -5542034.58047  -4308085.02244                  23495432.7674
      1701.9294
  22696724.8844  -14046854.61747 -10928501.69345                  22696721.2104
       579.2634
  23558069.6814   -9027153.91847  -9809979.74944                  23558064.8964
     -2531.2314
  22237761.6554  -13278563.98548 -11330381.58646                  22237755.3144
       -30.4254
  20521129.4824  -23554189.82448 -18341441.71847                  20521124.3474
       -35.4204
 06  6 28 15 47  0.0000000  0  6G20G 8G27G16G19G11
  22395871.9714  -13062143.32548 -10161826.52646                  22395867.1274
      3375.0104
  23485767.7634   -5592841.40047  -4347674.71844                  23485763.7204
      1685.2934
  22693459.5424  -14064014.60947 -10941873.10645                  22693455.7344
       564.8004
  23572547.7214   -8951075.73947  -9750698.03645                  23572542.0604
     -2540.5424
  22237931.5634  -13277669.61048 -11329684.66646                  22237926.0204
       -29.0284
  20521362.8864  -23552962.41148 -18340485.27147                  20521358.1254
       -46.2504
 06  6 28 15 47 30.0000000  0  6G20G 8G27G16G19G11
  22376618.6814  -13163319.53948 -10240665.12246                  22376613.9854
      3370.3084
  23476194.1724   -5643154.24547  -4386879.52444                  23476190.4154
      1669.0044
  22690275.4264  -14080747.31547 -10954911.56845                  22690271.6864
       550.7574
  23587077.3904   -8874722.08647  -9691201.67745                  23587072.3304
     -2549.5754
  22238092.8284  -13276821.32248 -11329023.68946                  22238086.5484
       -27.3974
  20521657.4214  -23551414.32248 -18339278.95646                  20521652.2234
       -56.7824
 06  6 28 15 48  0.0000000  0  6G20G 8G27G16G19G11
  22357393.9114  -13264346.08748 -10319387.08846                  22357388.5564
      3364.8924
  23466714.4924   -5692970.32247  -4425697.23744                  23466710.5524
      1652.1244
  22687172.8354  -14097051.40147 -10967616.03245                  22687168.1194
       536.2214
  23601659.2914   -8798092.43247  -9631490.28845                  23601654.2104
     -2559.0584
  22238246.9954  -13276015.61248 -11328395.87346                  22238240.2074
       -26.2164
  20522013.2994  -23549544.96848 -18337822.31447                  20522008.0874
       -67.8174
 06  6 28 15 48 30.0000000  0  6G20G 8G27G16G19G11
  22338199.9304  -13365212.06548 -10397983.95146                  22338194.6004
      3359.5604
  23457331.7104   -5742280.91147  -4464121.05244                  23457326.5644
      1635.3224
  22684153.3124  -14112920.15247 -10979981.29045                  22684148.9734
       521.7684
  23616295.0234   -8721180.59747  -9571558.99044                  23616289.5524
     -2568.3354
  22238393.5694  -13275244.09848 -11327794.69846                  22238386.8594
       -25.1324
  20522431.4104  -23547348.15348 -18336110.50547                  20522425.7694
       -78.6234
 06  6 28 15 49  0.0000000  0  6G20G 8G27G16G19G11
  22319034.7764  -13465921.87648 -10476459.11646                  22319029.8194
      3354.1804
  23448042.6184   -5791093.13047  -4502156.55044                  23448038.3194
      1618.6084
  22681215.1744  -14128361.95348 -10992013.85045                  22681210.4784
       507.5394
  23630982.7004   -8643995.61647  -9511414.85944                  23630977.7544
     -2577.5054
  22238532.2864  -13274513.62548 -11327225.47046                  22238526.0494
       -23.8044
  20522909.8894  -23544832.92548 -18334150.58147                  20522904.5544
       -89.2334
 06  6 28 15 49 30.0000000  0  6G20G 8G27G16G19G11
  22299901.1904  -13566471.79148 -10554809.68046                  22299896.2434
      3348.9264
  23438847.8994   -5839405.50647  -4539802.53644                  23438844.1554
      1602.0804
  22678357.2114  -14143377.14047 -11003713.98045                  22678353.0544
       493.3694
  23645722.2644   -8566538.15947  -9451058.39544                  23645716.8524
     -2586.4794
  22238663.4324  -13273822.77748 -11326687.11746                  22238657.1474
       -22.3494
  20523449.0514  -23542000.48448 -18331943.47247                  20523444.0024
       -99.7224
 06  6 28 15 50  0.0000000  0  6G20G 8G27G16G19G11
  22280796.8024  -13666866.22848 -10633039.08346                  22280792.0264
      3343.8924
  23429748.5894   -5887225.06647  -4577064.50044                  23429744.5584
      1585.7814
  22675579.8394  -14157973.77747 -11015087.97345                  22675575.6644
       479.6094
  23660512.5944   -8488817.41347  -9390496.76645                  23660507.3334
     -2595.0204
  22238785.9474  -13273178.33247 -11326184.93846                  22238780.0214
       -20.6694
  20524046.5874  -23538859.63348 -18329496.05047                  20524041.6984
      -109.7074
 06  6 28 15 50 30.0000000  0  6G20G 8G27G16G19G11
  22261724.7124  -13767093.05948 -10711137.89646                  22261719.4134
      3338.3494
  23420744.9354   -5934542.31947  -4613935.08444                  23420740.8864
      1569.0094
  22672883.1504  -14172144.11947 -11026129.78645                  22672879.1134
       465.4444
  23675354.2324   -8410825.87447  -9329724.16345                  23675349.1404
     -2603.8574
  22238902.0344  -13272570.42748 -11325711.24246                  22238895.7684
       -19.4684
  20524704.7344  -23535403.19248 -18326802.70147                  20524699.8814
      -120.2544
 06  6 28 15 51  0.0000000  0  6G20G 8G27G16G19G11
  22242683.2404  -13867154.24048 -10789107.62946                  22242678.0004
      3332.2464
  23411835.5044   -5981361.67847  -4650417.68044                  23411830.6824
      1551.9874
  22670266.6394  -14185894.46947 -11036844.33445                  22670261.6894
       451.0254
  23690244.9474   -8332570.30747  -9268745.81644                  23690239.4184
     -2613.2574
  22239009.9364  -13272003.42448 -11325269.40046                  22239004.0904
       -18.5844
  20525420.7454  -23531637.59248 -18323868.46347                  20525415.8584
      -130.9774
 06  6 28 15 51 30.0000000  0  6G20G 8G27G16G19G11
  22223677.0864  -13967032.43248 -10866934.75746                  22223672.0574
      3326.2794
  23403023.2704   -6027668.81047  -4686501.16344                  23403018.7344
      1535.1564
  22667732.4704  -14199211.59147 -11047221.28845                  22667727.7984
       436.7874
  23705188.7184   -8254038.54647  -9207552.23344                  23705184.1674
     -2622.1924
  22239112.4744  -13271462.65148 -11324847.99146                  22239106.3304
       -17.6074
  20526198.4594  -23527550.82048 -18320683.95847                  20526193.2104
      -141.4894
 06  6 28 15 52  0.0000000  0  6G20G 8G27G16G19G11
  22204703.9204  -14066736.20847 -10944625.98546                  22204699.2094
      3320.6304
  23394306.3724   -6073474.16547  -4722193.61544                  23394302.9474
      1518.5254
  22665278.6394  -14212107.79147 -11057270.26745                  22665274.3994
       422.9594
  23720183.6964   -8175243.01947  -9146153.12144                  23720178.2734
     -2630.8644
  22239208.3484  -13270958.52147 -11324455.15446                  22239202.2974
       -16.0944
  20527034.9134  -23523155.76748 -18317259.22747                  20527029.5424
      -151.5194
 06  6 28 15 52 30.0000000  0  6G20G 8G27G16G19G11
  22185764.3404  -14166263.90947 -11022180.03746                  22185759.6904
      3314.7954
  23385685.3294   -6118779.55147  -4757496.51744                  23385680.7964
      1502.0564
  22662904.2934  -14224585.59847 -11066993.22645                  22662899.5044
       409.1804
  23735227.2814   -8096186.98547  -9084551.01844                  23735222.3734
     -2639.2824
  22239297.0624  -13270491.72747 -11324091.41446                  22239291.4554
       -14.8054
  20527929.4324  -23518455.34148 -18313596.55147                  20527923.9324
      -161.5234
 06  6 28 15 53  0.0000000  0  6G20G 8G27G16G19G11
  22166858.4724  -14265614.28147 -11099595.88946                  22166853.8994
      3308.5454
  23377159.5494   -6163585.34747  -4792410.11744                  23377155.4164
      1485.0544
  22660607.7574  -14236647.82547 -11076392.32145                  22660604.2324
       395.0444
  23750320.2984   -8016873.43946  -9022748.25044                  23750314.8484
     -2648.2084
  22239378.9664  -13270063.19248 -11323757.49146                  22239373.0244
       -13.8334
  20528881.6694  -23513453.03248 -18309698.64147                  20528875.9964
      -171.9244
 06  6 28 15 53 30.0000000  0  6G20G 8G27G16G19G11
  22147989.2394  -14364775.10348 -11176864.05446                  22147983.4664
      3302.1634
  23368729.6724   -6207882.26547  -4826927.21644                  23368725.1314
      1468.0574
  22658393.7884  -14248286.32347 -11085461.28545                  22658389.9774
       380.8404
  23765463.3354   -7937295.36346  -8960739.36744                  23765458.5774
     -2657.0904
  22239455.0594  -13269663.15248 -11323445.77646                  22239448.5644
       -12.9154
  20529892.2654  -23508141.38748 -18305559.69247                  20529886.6644
      -182.2564
 06  6 28 15 54  0.0000000  0  6G20G 8G27G16G19G11
  22129154.6044  -14463750.50748 -11253987.74246                  22129149.2264
      3296.3874
  23360396.1964   -6251677.67247  -4861053.46944                  23360391.8624
      1451.8554
  22656257.8104  -14259509.87247 -11094206.90845                  22656253.5744
       367.5154
  23780655.4134   -7857461.98046  -8898531.55944                  23780650.2964
     -2665.0154
  22239524.3754  -13269298.06048 -11323161.28846                  22239517.9494
       -11.2744
  20530960.2314  -23502529.77448 -18301186.99747                  20530954.6964
      -191.6554
 06  6 28 15 54 30.0000000  0  6G20G 8G27G16G19G11
  22110356.5344  -14562536.55947 -11330963.86646                  22110351.7784
      3289.5364
  23352157.3334   -6294969.93947  -4894787.68944                  23352153.2614
      1434.5754
  22654201.1004  -14270318.41447 -11102629.11045                  22654197.1414
       353.2084
  23795895.9284   -7777373.68446  -8836125.11444                  23795890.5984
     -2674.0194
  22239587.2014  -13268965.91848 -11322902.44946                  22239581.4214
       -10.6694
  20532084.7764  -23496618.63348 -18296580.89747                  20532079.7444
      -202.1444
 06  6 28 15 55  0.0000000  0  6G20G 8G27G16G19G11
  22091594.4914  -14661129.71848 -11407789.69546                  22091590.5094
      3283.2134
  23344015.2304   -6337758.50247  -4928129.43044                  23344010.4814
      1417.9834
  22652223.0624  -14280713.10047 -11110728.85445                  22652219.3544
       339.5954
  23811183.7444   -7697032.12546  -8773521.30544                  23811178.6974
     -2682.1344
  22239644.7024  -13268666.04148 -11322668.80146                  22239638.2724
        -9.3804
  20533266.4084  -23490409.53348 -18291742.64047                  20533260.8674
      -211.8854
 06  6 28 15 55 30.0000000  0  6G20G 8G27G16G19G11
  22072871.3294  -14759522.11347 -11484459.07646                  22072866.2294
      3276.5144
  23335970.4604   -6380038.15647  -4961074.59245                  23335965.5874
      1401.0114
  22650324.6464  -14290690.33947 -11118503.31745                  22650320.6064
       325.8114
  23826521.2884   -7616433.76946  -8710717.38744                  23826515.8264
     -2690.6694
  22239696.8774  -13268392.39748 -11322455.57146                  22239690.7114
        -8.5454
  20534505.1084  -23483898.89048 -18286669.40547                  20534499.5294
      -221.8904
 06  6 28 15 56  0.0000000  0  6G20G 8G27G16G19G11
  22054185.6454  -14857716.97447 -11560974.53946                  22054180.8754
      3269.8004
  23328020.2854   -6421814.77447  -4993627.80845                  23328015.3944
      1384.0584
  22648503.9574  -14300257.03147 -11125957.88145                  22648500.5034
       311.9534
  23841906.3414   -7535586.48446  -8647719.51744                  23841900.9544
     -2699.0774
  22239742.5674  -13268150.47048 -11322267.04046                  22239737.3224
        -7.6664
  20535800.2004  -23477094.88648 -18281367.58547                  20535794.8984
      -231.7724
 06  6 28 15 56 30.0000000  0  6G20G 8G27G16G19G11
  22035537.9094  -14955709.17147 -11637332.08646                  22035532.6714
      3263.1054
  23320165.7604   -6463086.65547  -5025787.69945                  23320162.2344
      1367.4514
  22646761.8964  -14309412.92647 -11133092.32745                  22646758.1084
       298.4334
  23857337.7024   -7454490.29346  -8584527.67544                  23857333.2484
     -2707.2904
  22239783.4364  -13267937.56748 -11322101.14546                  22239777.6214
        -6.4454
  20537150.9354  -23469997.28448 -18275836.97247                  20537145.2874
      -241.3134
 06  6 28 15 57  0.0000000  0  6G20G 8G27G16G19G11
  22016929.1744  -15053501.37448 -11713533.79946                  22016923.5574
      3256.1334
  23312407.0474   -6503858.93947  -5057558.28845                  23312403.5634
      1350.5324
  22645096.0604  -14318164.88147 -11139912.01545                  22645091.8124
       284.7714
  23872816.4254   -7373152.22546  -8521147.36444                  23872811.3924
     -2715.4404
  22239817.8204  -13267758.41248 -11321961.53946                  22239811.7664
        -5.6154
  20538555.8884  -23462613.60448 -18270083.46147                  20538550.3184
      -251.0944
 06  6 28 15 57 30.0000000  0  6G20G 8G27G16G19G11
  21998359.2474  -15151085.39647 -11789573.29346                  21998353.5214
      3249.4484
  23304744.4154   -6544126.19647  -5088935.36744                  23304740.4674
      1334.0674
  22643508.4244  -14326508.42347 -11146413.47245                  22643503.0834
       271.5194
  23888341.3174   -7291569.35746  -8457576.31944                  23888335.8614
     -2723.2864
  22239846.2434  -13267606.85348 -11321843.45146                  22239840.2694
        -4.4384
  20540016.2774  -23454940.10348 -18264104.09947                  20540011.0584
      -260.4544
 06  6 28 15 58  0.0000000  0  6G20G 8G27G16G19G11
  21979829.7284  -15248457.49047 -11865447.64846                  21979824.5424
      3242.0364
  23297177.8254   -6583887.55146  -5119918.23945                  23297174.4884
      1316.8654
  22641998.4244  -14334444.89747 -11152597.72345                  22641994.2274
       257.6714
  23903912.4954   -7209742.27847  -8393814.90044                  23903906.6534
     -2731.7684
  22239870.1274  -13267481.54048 -11321745.79946                  22239864.2304
        -3.8774
  20541531.1554  -23446978.05448 -18257899.89347                  20541526.0054
      -270.2884
 06  6 28 15 58 30.0000000  0  6G20G 8G27G16G19G11
  21961341.9124  -15345612.43948 -11941152.79446                  21961336.7724
      3234.6294
  23289708.8274   -6623140.62446  -5150505.00445                  23289704.7824
      1299.7614
  22640565.6394  -14341973.23547 -11158463.94245                  22640561.3204
       243.9214
  23919529.6814   -7127670.78646  -8329863.13644                  23919525.4364
     -2739.9414
  22239890.1224  -13267379.31148 -11321666.12846                  22239883.8054
        -3.2474
  20543101.2854  -23438727.28548 -18251470.71647                  20543095.8024
      -279.9764
 06  6 28 15 59  0.0000000  0  6G20G 8G27G16G19G11
  21942896.7544  -15442545.44648 -12016685.00046                  21942891.4354
      3227.4904
  23282335.7424   -6661883.65146  -5180694.38045                  23282331.9064
      1282.9204
  22639210.8784  -14349093.03147 -11164011.83745                  22639206.5894
       230.6884
  23935194.0464   -7045354.89346  -8265720.86544                  23935189.1274
     -2747.8174
  22239905.3894  -13267297.62248 -11321602.47546                  22239899.2074
        -2.2904
  20544726.2564  -23430187.75548 -18244816.53747                  20544720.8344
      -289.3314
